Weather History for East Milton, MA

Change the Weather History Date:

Thursday, January 10, 2013

  Actual Average (KBOS) Record (KBOS)
Temperature  
Mean Temperature 39 °F 29 °F  
Max Temperature 45 °F 36 °F 56 °F (2000)
Min Temperature 32 °F 22 °F -3 °F (2004)
Degree Days  
Heating Degree Days 26 36  
Month to date heating degree days 356  
Since 1 July heating degree days 2350  
Cooling Degree Days 0 0  
Month to date cooling degree days 0  
Year to date cooling degree days 0  
Moisture  
Dew Point 21 °F    
Average Humidity 50    
Maximum Humidity 64    
Minimum Humidity 39    
Precipitation  
Precipitation 0.00 in 0.11 in 2.86 in (1881)
Month to date precipitation 1.10  
Year to date precipitation 1.10  
Snow  
Snow 0.00 in 0.40 in 5.80 in (1896)
Month to date snowfall 4.2  
Since 1 July snowfall 14.5  
Snow Depth -    
Sea Level Pressure  
Sea Level Pressure 30.34 in    
Wind  
Wind Speed 17 mph (NW)    
Max Wind Speed 26 mph    
Max Gust Speed 47 mph    
T = Trace of Precipitation, MM = Missing Value Source: NWS Daily Summary

Daily Weather History Graph

Daily Weather History Graph

Search for Another Location

Airport:

Trip Planner

Search our weather history database for the weather conditions in past years. The results will help you decide how hot, cold, wet, or windy it might be!

Date:

Astronomy

Jan. 10, 2013 Rise Set
Actual Time 7:12 AM EST 4:32 PM EST
Civil Twilight 6:41 AM EST 5:03 PM EST
Nautical Twilight 6:06 AM EST 5:38 PM EST
Astronomical Twilight 5:32 AM EST 6:12 PM EST
Moon 5:49 AM EST (1/10) 3:36 PM EST (1/10)
Length of Visible Light 10h 22m
Length of Day
9h 19m
Waning Crescent, 2% of the Moon is Illuminated
Jan 10
Waning Crescent
Jan 11
New
Jan 18
First Quarter
Jan 26
Full
Feb 3
Last Quarter

Hourly Weather History & Observations

Time (EST) Temp. Windchill Dew Point Humidity Pressure Visibility Wind Dir Wind Speed Gust Speed Precip Events Conditions
12:54 AM 41.0 °F 32.2 °F 24.1 °F 51% 30.07 in - West 18.4 mph 28.8 mph N/A   Unknown
1:54 AM 39.9 °F 31.1 °F 23.0 °F 51% 30.07 in - West 17.3 mph 25.3 mph N/A   Unknown
2:54 AM 39.9 °F 29.7 °F 25.0 °F 55% 30.11 in - WNW 23.0 mph 47.2 mph N/A   Unknown
3:54 AM 39.0 °F 27.8 °F 25.0 °F 57% 30.14 in - WNW 26.5 mph 36.8 mph N/A   Unknown
4:54 AM 39.0 °F 30.6 °F 23.0 °F 53% 30.18 in - NW 15.0 mph 32.2 mph N/A   Unknown
5:54 AM 39.0 °F 29.0 °F 21.0 °F 49% 30.22 in - WNW 20.7 mph 36.8 mph N/A   Unknown
6:54 AM 37.0 °F 27.4 °F 19.9 °F 50% 30.26 in - WNW 17.3 mph 33.4 mph N/A   Unknown
7:54 AM 37.0 °F 27.4 °F 21.0 °F 52% 30.29 in - WNW 17.3 mph 29.9 mph N/A   Unknown
8:54 AM 37.9 °F 29.2 °F 21.0 °F 51% 30.32 in - WNW 15.0 mph 29.9 mph N/A   Unknown
9:54 AM 39.9 °F 30.8 °F 21.0 °F 47% 30.35 in - NW 18.4 mph 29.9 mph N/A   Unknown
10:54 AM 42.1 °F 33.9 °F 21.0 °F 43% 30.35 in - NW 17.3 mph 32.2 mph N/A   Unknown
11:54 AM 42.1 °F 32.6 °F 21.0 °F 43% 30.32 in - NW 23.0 mph 35.7 mph N/A   Unknown
12:54 PM 44.1 °F 37.4 °F 21.0 °F 40% 30.34 in - NW 13.8 mph 21.9 mph N/A   Unknown
1:54 PM 45.0 °F 39.7 °F 21.0 °F 39% 30.36 in - WNW 10.4 mph 23.0 mph N/A   Unknown
2:54 PM 44.1 °F 36.5 °F 21.0 °F 40% 30.39 in - NW 17.3 mph 28.8 mph N/A   Unknown
3:54 PM 42.1 °F 36.1 °F 19.9 °F 41% 30.41 in - NW 10.4 mph 23.0 mph N/A   Unknown
4:54 PM 39.9 °F 33.4 °F 19.9 °F 45% 30.45 in - NW 10.4 mph 19.6 mph N/A   Unknown
5:54 PM 37.9 °F 30.9 °F 21.0 °F 51% 30.46 in - NNW 10.4 mph - N/A   Unknown
6:54 PM 37.0 °F 28.1 °F 21.0 °F 52% 30.47 in - NNW 15.0 mph - N/A   Unknown
7:54 PM 36.0 °F 28.0 °F 21.0 °F 55% 30.50 in - NW 11.5 mph 18.4 mph N/A   Unknown
8:54 PM 35.1 °F 26.9 °F 21.0 °F 57% 30.52 in - NNW 11.5 mph - N/A   Unknown
9:54 PM 33.1 °F 25.5 °F 21.0 °F 61% 30.54 in - NW 9.2 mph - N/A   Unknown
10:54 PM 33.1 °F 23.9 °F 21.0 °F 61% 30.54 in - NNW 12.7 mph - N/A   Unknown
11:54 PM 32.0 °F 23.0 °F 21.0 °F 64% 30.52 in - NNW 11.5 mph - N/A   Unknown